CAPE
0 0 0 0 31 1 0 0 66 77 102 91 187 187 556 838 707 626 621 613 534 530 593 580 566 563 648 845 985 1168 1250 1395 1340 1103 1003 975 1037 1062 1245 1339 973 791 706 728
0 0 0 0 0 0 0 17 97 134 150 180 284 361 258 739 808 780 673 540 534 542 509 496 382 336 134 537 681 1003 1060 1203 1159 960 976 995 1118 1150 1303 1146 1275 1193 1010 572
0 0 0 0 3 10 47 77 58 99 340 442 427 456 396 346 637 490 622 676 594 470 440 462 303 249 194 238 418 583 799 1019 944 1011 1005 1051 1245 1224 1135 1437 1202 1519 1312 867
0 0 0 0 0 12 12 13 22 222 169 124 325 190 280 395 391 482 394 598 597 605 511 445 387 287 193 183 194 393 558 680 713 936 986 1104 234 342 82 415 935 1248 1243 1269
0 0 0 0 0 17 35 33 150 184 136 130 177 289 275 81 200 426 373 210 222 442 495 508 514 491 393 347 276 238 519 708 809 1019 1062 168 31 23 17 16 35 422 663 827
0 0 0 0 0 10 1 8 0 1 20 123 0 243 152 150 255 215 177 222 100 274 438 429 477 499 536 450 326 294 671 762 854 1058 270 109 85 18 3 8 24 49 165 1181
0 0 0 0 0 0 0 10 78 95 109 62 32 312 248 235 98 167 151 95 57 41 230 488 610 596 565 535 580 636 730 796 970 910 224 131 211 100 21 0 6 27 103 634
0 0 0 0 0 0 0 5 36 112 55 48 0 279 124 59 170 285 191 455 374 538 374 535 700 751 670 681 757 795 1145 1060 946 652 451 811 292 52 21 1 0 5 142 313
0 0 0 0 0 0 0 2 0 8 1 35 43 83 16 99 130 122 277 325 572 774 749 743 706 1089 1232 1762 1464 1047 1337 1620 1234 803 1068 486 26 308 123 118 19 103 506 975
0 0 0 0 0 0 0 0 11 16 72 57 72 52 158 360 402 442 332 612 763 860 563 492 401 665 936 2208 2402 1793 1902 1944 1460 1010 942 718 606 728 541 166 112 967 883 605
0 0 0 0 0 0 0 0 6 10 14 20 61 35 197 448 519 427 496 870 684 917 562 378 555 1436 2276 2366 2028 1739 1769 1880 1458 1212 977 880 757 482 288 471 822 1157 949 797
0 0 0 0 0 0 0 0 2 0 0 1 6 44 0 0 22 246 640 1044 749 783 907 537 660 1812 1686 1721 1854 1756 1531 1403 1323 1017 907 793 761 671 667 837 877 894 788 671
0 0 0 0 0 0 0 0 0 0 5 88 9 18 79 241 209 214 632 932 932 944 945 847 1267 1875 1555 1780 1646 1385 1216 870 774 784 673 645 657 568 390 452 633 648 656 636
0 0 0 0 0 0 0 0 0 0 20 4 8 7 29 68 503 225 267 647 1129 1049 1402 1456 1559 1523 1685 1575 1020 754 624 602 626 671 741 729 729 667 474 359 340 405 419 350
0 0 0 0 0 0 0 0 0 0 1 3 0 4 45 106 65 457 281 457 1119 1518 1583 1685 1693 1717 1569 1064 651 554 666 793 784 750 652 523 375 239 75 7 0 13 238 244
0 0 0 0 0 0 0 0 0 0 0 0 0 0 0 2 124 405 385 775 1265 1586 1656 1927 2104 1910 1457 962 597 622 885 912 740 654 400 180 44 3 1 0 0 0 0 1
0 0 0 0 0 0 0 0 0 0 0 0 0 16 68 232 425 469 461 643 1338 1614 1807 2095 2067 1813 1565 967 869 889 1028 832 697 488 215 74 2 0 0 0 0 0 0 0
0 0 0 0 0 0 0 0 0 0 0 0 0 8 26 208 345 401 514 628 1210 1643 1967 2114 1997 1864 1659 1013 1032 1019 929 739 525 371 171 11 3 1 0 0 0 0 0 0
0 0 1 47 0 0 0 37 14 13 0 0 0 71 270 319 266 439 479 867 1177 1825 1945 2145 1879 1625 1275 947 1243 1121 1005 868 573 364 122 5 0 0 0 0 0 0 0 0
14 0 115 0 45 0 2 165 85 69 0 0 54 211 348 515 637 724 600 1091 1238 1731 1967 2043 1706 1427 1140 1123 1269 1271 1151 920 537 167 14 1 0 0 0 0 0 0 0 0
446 496 153 14 48 0 0 164 86 122 36 112 169 389 388 703 759 880 569 1446 1791 2045 2045 1878 1685 1585 1400 1288 1401 1364 1134 799 62 0 0 0 0 0 0 0 0 0 0 0
480 462 523 196 96 118 233 108 312 344 339 198 231 596 496 819 925 1164 569 1848 2136 2163 2000 1923 1824 1691 1375 1349 1450 1203 983 33 0 0 0 0 0 0 0 0 0 0 0 0
495 376 489 521 455 391 379 309 216 98 265 284 166 518 696 590 839 1286 747 1729 2170 2190 2071 1909 1739 912 1072 1279 1213 907 7 0 0 0 0 0 0 0 0 0 0 0 0 0
410 109 485 223 450 194 162 221 109 118 216 142 250 383 600 506 845 1383 1445 1567 1917 2122 1959 1713 1044 575 554 576 791 84 0 0 0 0 0 0 0 0 0 0 0 0 0 0
275 154 265 280 274 133 36 27 6 1 62 211 482 481 573 797 1150 1456 1628 1678 1750 1606 952 894 589 402 187 74 11 0 0 0 0 0 0 0 0 0 0 0 0 0 0 0
215 560 350 345 190 209 177 5 19 6 237 249 483 729 807 1069 1259 1306 1241 1122 742 444 334 304 64 19 0 0 1 2 0 0 0 0 0 0 0 0 0 0 0 0 0 0
CIN
-0 -0 -0 -0 -57 -43 -0 -0 -78 -92 -134 -132 -105 -125 -134 -149 -167 -154 -149 -117 -108 -92 -62 -65 -62 -85 -78 -91 -119 -150 -163 -174 -155 -154 -132 -115 -108 -91 -92 -79 -81 -71 -55 -40
-0 -0 -0 -0 -0 -0 -0 -73 -47 -92 -131 -140 -144 -109 -196 -174 -162 -147 -139 -173 -147 -112 -95 -93 -96 -94 -151 -117 -152 -158 -194 -201 -206 -178 -160 -123 -92 -76 -54 -62 -46 -53 -50 -57
-0 -0 -0 -0 -50 -50 -57 -28 -46 -58 -99 -145 -159 -116 -189 -262 -230 -236 -188 -133 -137 -145 -141 -126 -155 -153 -146 -175 -185 -200 -239 -229 -227 -198 -170 -83 -32 -20 -18 -7 -21 -19 -50 -81
-0 -0 -0 -0 -0 -53 -64 -66 -80 -65 -67 -26 -171 -34 -179 -224 -256 -277 -224 -183 -147 -142 -146 -125 -122 -186 -180 -171 -203 -223 -285 -277 -265 -192 -115 -95 -213 -169 -239 -108 -37 -41 -27 -41
-0 -0 -0 -0 -0 -83 -59 -104 -61 -78 -70 -85 -112 -69 -56 -357 -225 -194 -213 -240 -232 -187 -143 -119 -93 -105 -134 -164 -177 -265 -314 -329 -283 -201 -137 -286 -424 -419 -444 -305 -228 -74 -60 -65
-0 -0 -0 -0 -0 -77 -8 -105 -0 -70 -117 -16 -0 -106 -34 -117 -143 -208 -225 -228 -278 -236 -240 -213 -175 -151 -142 -179 -212 -290 -367 -364 -302 -208 -342 -413 -444 -535 -358 -216 -280 -177 -104 -21
-0 -0 -0 -0 -0 -26 -0 -36 -21 -18 -8 -15 -115 -112 -50 -113 -208 -244 -270 -300 -385 -413 -299 -221 -212 -171 -186 -229 -222 -284 -337 -317 -242 -205 -371 -422 -404 -413 -495 -0 -119 -202 -126 -55
-0 -0 -0 -0 -0 -0 -0 -20 -17 -13 -28 -46 -0 -31 -29 -189 -292 -318 -329 -263 -338 -297 -315 -262 -243 -238 -232 -240 -233 -209 -239 -242 -257 -292 -364 -294 -314 -530 -535 -154 -0 -78 -96 -62
-0 -0 -0 -0 -0 -0 -0 -34 -0 -49 -15 -61 -57 -81 -146 -168 -254 -251 -243 -275 -221 -285 -368 -353 -313 -260 -232 -160 -174 -192 -196 -178 -216 -285 -258 -413 -666 -368 -367 -279 -276 -182 -31 -1
-0 -0 -0 -0 -0 -0 -0 -0 -32 -67 -7 -15 -30 -104 -17 -24 -64 -193 -202 -192 -253 -347 -360 -366 -378 -322 -262 -135 -117 -135 -130 -149 -214 -270 -244 -248 -253 -155 -146 -254 -231 -23 -28 -48
-0 -0 -0 -0 -0 -0 -0 -6 -101 -58 -46 -9 -10 -21 -64 -71 -115 -176 -174 -201 -251 -284 -370 -396 -351 -211 -123 -120 -177 -195 -160 -145 -184 -185 -172 -151 -147 -187 -213 -104 -24 -5 -6 -25
-0 -0 -0 -0 -0 -0 -0 -0 -27 -0 -4 -3 -30 -21 -0 -2 -257 -296 -215 -252 -308 -328 -376 -395 -343 -159 -184 -187 -166 -163 -184 -188 -162 -173 -162 -157 -136 -118 -101 -54 -47 -48 -51 -47
-0 -0 -0 -0 -0 -0 -0 -0 -0 -22 -101 -52 -7 -29 -261 -320 -373 -431 -290 -341 -356 -362 -395 -376 -278 -175 -207 -169 -156 -181 -200 -244 -239 -210 -186 -151 -132 -132 -148 -124 -72 -47 -27 -22
-0 -0 -0 -0 -0 -0 -0 -0 -0 -0 -17 -26 -37 -11 -27 -80 -259 -355 -375 -434 -366 -392 -328 -275 -226 -213 -156 -166 -232 -280 -302 -289 -245 -180 -131 -108 -82 -80 -101 -101 -93 -76 -74 -81
-0 -0 -0 -0 -0 -0 -0 -0 -0 -0 -15 -9 -0 -24 -35 -62 -120 -326 -379 -426 -380 -329 -288 -230 -222 -190 -203 -283 -333 -325 -280 -224 -175 -137 -131 -145 -162 -173 -197 -56 -0 -98 -101 -84
-0 -0 -0 -0 -0 -0 -0 -0 -0 -0 -0 -0 -0 -0 -0 -92 -470 -405 -425 -459 -375 -295 -251 -182 -145 -156 -209 -275 -338 -322 -209 -165 -154 -133 -174 -200 -206 -0 -0 -0 -0 -0 -0 -0
-0 -0 -0 -0 -0 -0 -0 -0 -0 -0 -0 -0 -0 -38 -119 -145 -324 -418 -455 -402 -345 -307 -264 -185 -154 -170 -186 -274 -265 -230 -169 -159 -146 -158 -188 -190 -25 -0 -0 -0 -0 -0 -0 -0
-0 -0 -0 -0 -0 -0 -0 -0 -0 -0 -0 -0 -0 -103 -203 -180 -322 -490 -487 -376 -322 -307 -264 -213 -172 -167 -150 -231 -199 -167 -165 -153 -145 -136 -137 -64 -0 -0 -0 -0 -0 -0 -0 -0
-0 -0 -18 -48 -0 -0 -0 -110 -66 -24 -0 -0 -0 -110 -282 -437 -482 -431 -549 -426 -320 -277 -241 -190 -181 -195 -227 -251 -172 -172 -148 -112 -127 -126 -114 -0 -0 -0 -0 -0 -0 -0 -0 -0
-21 -0 -51 -13 -21 -1 -23 -239 -379 -268 -0 -64 -293 -248 -316 -359 -71 -50 -540 -419 -329 -273 -209 -188 -209 -219 -234 -224 -184 -141 -121 -121 -137 -167 -129 -0 -0 -0 -0 -0 -0 -0 -0 -0
-87 -109 -55 -96 -47 -6 -0 -306 -405 -37 -14 -352 -380 -361 -347 -278 -218 -463 -412 -350 -287 -270 -245 -235 -207 -197 -209 -210 -143 -97 -109 -119 -193 -0 -0 -0 -0 -0 -0 -0 -0 -0 -0 -0
-28 -26 -25 -140 -67 -29 -289 -403 -89 -216 -363 -427 -447 -385 -437 -375 -380 -437 -443 -315 -294 -269 -254 -207 -198 -193 -209 -182 -137 -129 -132 -132 -0 -0 -0 -0 -0 -0 -0 -0 -0 -0 -0 -0
-42 -71 -11 -26 -13 -208 -314 -227 -303 -477 -470 -482 -538 -422 -414 -372 -299 -387 -423 -311 -270 -244 -225 -205 -214 -346 -246 -145 -124 -142 -35 -0 -0 -0 -0 -0 -0 -0 -0 -0 -0 -0 -0 -0
-252 -470 -191 -159 -81 -200 -231 -303 -419 -457 -474 -525 -543 -523 -465 -375 -342 -332 -362 -329 -263 -228 -228 -226 -343 -419 -344 -300 -187 -315 -0 -0 -0 -0 -0 -0 -0 -0 -0 -0 -0 -0 -0 -0
-256 -361 -220 -169 -160 -198 -239 -368 -232 -91 -548 -487 -454 -469 -435 -368 -326 -284 -316 -324 -303 -291 -419 -399 -412 -396 -453 -370 -245 -0 -0 -0 -0 -0 -0 -0 -0 -0 -0 -0 -0 -0 -0 -0
-281 -140 -78 -15 -214 -237 -182 -114 -328 -373 -412 -451 -425 -367 -350 -316 -280 -308 -340 -396 -503 -538 -503 -445 -595 -615 -0 -0 -0 -0 -0 -0 -0 -0 -0 -0 -0 -0 -0 -0 -0 -0 -0 -0
Wind_Speed
1 6 7 4 6 3 0 4 2 1 4 3 6 7 10 14 14 14 13 14 15 18 20 15 16 16 15 15 15 16 15 14 11 9 8 8 9 8 8 6 8 10 9 8
5 9 4 2 2 1 3 4 4 2 4 3 3 10 8 14 18 17 17 17 19 18 17 16 17 16 16 16 16 15 15 14 13 9 7 5 2 3 6 3 8 9 9 7
10 5 4 3 1 3 2 5 3 4 5 2 6 5 7 11 15 14 18 18 18 19 19 19 17 17 16 16 16 15 15 14 12 10 4 4 4 3 4 4 4 7 8 10
8 4 5 2 6 3 6 7 2 2 3 3 4 5 4 9 14 18 17 18 20 19 18 16 17 16 16 17 14 14 13 11 10 9 7 10 6 3 1 2 5 7 9 8
9 9 8 8 4 4 3 4 1 2 1 4 2 5 2 0 8 16 19 20 19 18 16 17 18 18 17 14 13 9 9 11 11 12 12 9 6 4 5 4 1 5 6 5
3 1 4 11 2 4 8 5 3 0 3 4 4 4 3 5 5 4 9 14 14 13 14 14 12 12 13 9 7 8 12 12 14 15 16 11 9 7 4 4 4 2 4 4
2 4 1 3 4 5 5 5 3 3 2 3 3 5 9 8 7 6 8 5 4 6 10 9 9 9 9 5 7 9 13 12 13 16 14 9 10 6 6 6 2 3 3 3
11 12 8 6 8 3 6 5 4 4 2 4 1 5 4 2 1 4 6 3 1 2 4 5 5 5 5 7 9 11 14 14 16 17 15 11 11 5 4 3 1 1 4 4
8 12 2 6 5 5 5 6 3 4 1 6 2 5 13 9 7 10 8 4 1 5 7 8 8 9 9 11 10 11 13 15 17 18 14 11 8 3 2 3 2 1 3 4
7 6 8 5 6 5 5 9 4 1 4 6 4 6 8 11 8 4 7 4 6 9 8 9 10 11 8 9 8 10 12 16 19 19 14 8 5 5 2 4 2 4 3 2
9 4 4 4 11 12 6 5 3 1 3 6 7 7 6 10 8 6 7 2 7 9 9 10 10 10 10 10 11 12 11 13 13 11 9 6 5 4 4 1 2 3 4 4
8 8 7 9 3 3 3 6 9 6 5 2 4 10 2 8 6 6 8 6 6 6 9 11 11 10 10 12 12 12 12 13 13 12 11 8 8 8 8 7 6 5 5 5
11 8 7 6 4 2 6 5 4 4 2 7 6 9 4 3 3 7 9 7 7 7 9 10 12 12 12 14 14 13 13 14 13 13 13 12 11 10 9 8 7 6 5 5
15 6 13 11 10 6 7 7 9 10 5 4 8 13 16 9 8 8 10 9 8 9 9 11 12 12 13 13 12 13 14 14 15 14 14 13 12 11 10 9 8 7 7 7
10 11 10 12 7 5 4 9 12 12 10 7 8 7 15 14 9 14 15 12 11 12 12 12 13 14 15 15 13 13 13 13 14 13 12 11 10 10 9 8 7 7 7 7
3 4 6 6 7 6 5 6 8 11 5 12 13 15 13 7 6 10 18 16 15 14 14 14 16 17 16 16 15 15 13 13 13 12 12 11 9 9 8 7 6 6 6 6
5 6 5 3 5 9 6 12 12 9 8 11 8 9 4 6 7 8 14 16 16 17 17 16 16 16 16 16 15 15 15 13 12 12 11 10 9 8 7 7 6 6 5 5
6 5 2 4 6 7 3 2 5 8 12 13 13 12 9 11 5 5 14 19 16 17 18 17 15 15 14 14 15 15 15 14 13 12 11 10 8 7 8 6 6 6 4 4
2 4 3 3 5 3 4 4 4 3 7 4 13 12 8 4 4 6 13 18 18 19 17 16 16 16 15 16 15 15 14 13 12 11 10 9 9 8 8 6 5 5 3 4
6 4 3 3 4 8 2 4 2 3 6 5 4 9 8 6 5 5 18 16 13 13 14 16 17 16 15 15 15 15 14 13 12 11 9 7 7 8 7 6 5 4 4 3
2 2 3 4 4 4 4 4 6 6 2 5 5 9 8 10 6 10 13 13 13 15 16 16 16 15 15 16 15 14 13 12 11 10 9 8 8 7 6 7 5 4 4 2
3 4 2 2 3 6 8 6 8 3 3 6 8 9 10 13 11 7 13 15 16 16 15 16 15 14 14 15 14 13 13 12 11 10 9 8 7 5 6 6 4 3 2 2
4 3 2 6 2 1 6 6 3 3 5 7 8 11 9 11 9 3 9 13 15 17 14 14 15 14 12 12 11 13 12 13 12 11 10 8 7 6 5 4 3 3 1 3
3 2 3 3 4 9 10 10 8 5 5 9 9 10 9 9 6 5 7 8 10 12 14 13 16 15 12 11 13 14 14 13 12 11 9 7 6 4 3 3 3 2 2 2
2 4 2 6 11 10 12 6 6 5 6 8 7 5 8 5 4 5 8 11 10 10 11 14 13 13 12 9 10 13 13 12 11 9 8 6 4 4 5 5 5 4 3 3
6 5 5 4 4 3 4 4 1 4 5 6 4 5 2 5 5 6 5 6 8 9 9 11 14 16 13 17 8 9 11 10 10 9 6 5 5 5 4 4 5 6 5 2
Wind_Direction
32 221 238 266 249 31 42 294 271 210 180 220 250 263 212 202 215 209 208 209 211 221 229 222 222 226 222 223 224 219 213 211 196 202 208 228 232 236 245 232 233 234 234 232
180 219 212 242 43 232 220 242 230 209 171 237 283 265 225 210 220 223 215 215 217 221 228 231 232 228 224 222 223 220 218 206 201 202 208 221 245 266 270 277 262 244 253 236
210 192 144 189 219 250 217 243 225 323 156 155 286 262 229 217 228 235 238 237 232 224 223 219 225 228 230 225 218 215 212 204 200 197 169 76 54 13 16 356 289 269 248 237
223 179 230 217 273 243 274 229 233 249 250 328 329 302 246 215 228 229 235 231 236 232 229 230 220 214 221 226 221 215 205 188 189 166 133 109 109 122 159 338 318 311 298 282
186 174 196 240 290 195 334 114 145 237 240 282 59 266 272 94 246 242 233 235 236 243 241 238 232 231 225 224 219 208 171 157 150 143 135 118 122 195 217 176 83 354 322 299
166 254 199 230 113 179 142 116 97 120 294 255 31 303 249 207 227 207 229 239 235 237 243 249 257 257 248 226 202 165 153 152 149 142 133 146 156 211 228 165 103 88 325 308
154 195 180 211 186 128 207 228 275 236 213 327 14 249 270 259 251 252 279 259 217 227 228 236 244 244 240 207 161 156 147 151 153 141 130 164 209 219 263 117 171 161 262 284
204 208 192 165 221 238 197 236 255 290 312 342 121 249 280 267 217 221 243 244 316 185 179 175 184 173 158 139 160 157 160 162 153 153 169 195 201 150 210 207 176 357 259 288
189 223 181 214 205 205 155 210 340 186 161 269 316 269 271 273 253 241 250 260 52 97 115 122 112 108 115 115 142 171 161 148 155 168 185 202 236 112 213 132 33 200 278 300
189 205 204 159 140 74 244 135 176 207 249 263 251 276 269 296 297 205 239 226 129 106 119 113 103 112 115 114 108 123 142 158 167 174 191 208 228 263 247 124 253 259 206 94
170 255 134 170 202 192 159 182 82 166 260 274 282 277 217 255 284 214 216 181 144 139 134 127 115 114 118 108 107 112 124 137 148 164 179 206 196 196 159 112 161 111 100 83
189 209 227 201 93 349 248 225 192 241 199 253 312 274 159 265 283 221 195 154 145 141 154 156 138 126 121 119 119 130 129 125 128 130 123 111 110 121 128 135 114 102 105 106
172 213 197 200 170 172 223 180 182 136 155 217 263 271 105 297 253 219 179 174 153 137 146 149 147 138 136 129 132 136 136 131 127 125 126 129 131 128 128 122 116 112 116 115
164 165 212 226 214 169 185 191 197 212 196 177 240 278 287 261 230 192 207 181 163 151 153 144 138 139 138 132 137 137 133 133 135 135 137 136 138 132 120 117 120 121 114 102
195 206 198 220 226 204 196 190 184 206 220 225 308 245 279 283 268 198 189 180 170 160 162 159 150 147 140 138 142 140 138 137 135 133 132 120 112 111 115 112 103 90 92 97
195 168 190 223 202 205 231 211 200 231 252 255 267 277 273 294 273 191 186 179 177 170 169 164 158 150 146 149 151 146 141 135 130 130 126 121 117 118 116 111 105 97 94 86
161 154 169 226 167 163 216 227 214 225 213 233 224 247 270 262 251 221 207 188 174 176 170 165 163 156 156 157 151 144 137 136 137 134 127 126 142 139 124 116 107 96 84 92
145 131 156 115 175 197 107 223 201 222 251 248 257 255 261 277 286 215 197 192 186 175 167 166 164 157 157 152 146 137 139 141 139 137 143 153 149 133 113 105 100 96 93 80
316 140 118 193 202 334 205 175 211 226 279 266 258 286 300 267 215 230 202 196 189 177 170 165 161 155 153 151 143 139 139 142 143 144 153 155 148 128 120 122 109 94 106 83
98 66 214 161 213 219 173 138 115 215 251 81 345 303 290 199 226 227 184 190 181 169 160 155 151 144 146 148 146 145 148 148 143 142 144 144 120 114 126 121 111 104 103 103
101 63 222 163 239 269 183 153 148 207 293 333 308 294 255 220 304 318 176 176 166 159 156 150 151 146 148 150 149 149 148 138 129 129 127 116 113 126 126 113 118 127 121 132
216 189 183 146 217 243 144 139 212 30 320 309 309 298 263 240 286 330 177 170 160 159 150 154 145 143 151 153 151 146 136 134 130 125 121 118 143 142 118 123 129 119 125 110
230 270 242 227 249 94 195 257 226 317 304 321 322 316 287 252 241 165 196 186 167 160 157 157 142 139 150 155 147 142 137 136 134 130 127 135 131 119 130 150 136 144 243 315
203 154 244 283 211 251 254 248 272 292 297 314 311 304 290 273 249 168 166 174 165 155 151 150 147 145 141 144 145 136 141 137 139 135 135 132 142 136 145 152 112 68 34 353
44 153 280 266 274 282 271 266 276 274 293 316 329 293 295 258 198 190 168 166 157 147 146 154 148 134 118 121 121 130 138 141 135 135 125 124 148 140 129 78 39 42 56 352
192 179 205 263 1 295 338 354 312 321 321 310 330 331 254 283 192 163 164 151 145 135 148 137 121 120 122 109 134 139 138 139 139 129 127 162 152 144 118 102 116 84 68 40